When you browse on this site, cookies collect data to enhance your experience and personalize the content and advertising you see.
Visit our Privacy Policy to learn more. By continuing to use the site, you agree to this use of cookies and data.
  • Em Portugal
  • Lista de países
  • Para 7 dias
  • Temperatura da água
  • Mapa do tempo
  • Widgets de tempo
  • user-avatar
    Iniciar Sessão

    Previsão horária em Yulara

    Hoje, 24 Fevereiro, Segunda-feira

    Tempo Temperatura Precipitação Vento Pressão Humidade
    00:00 +27°C° 0 mm 4 m/s 716 mmHg 15%
    01:00 +27°C° 0 mm 4 m/s 716 mmHg 17%
    02:00 +26°C° 0 mm 4 m/s 716 mmHg 18%
    03:00 +25°C° 0 mm 4 m/s 716 mmHg 18%
    04:00 +25°C° 0 mm 4 m/s 716 mmHg 21%
    05:00 +25°C° 0 mm 4 m/s 716 mmHg 24%
    06:00 +23°C° 0 mm 4 m/s 716 mmHg 26%
    07:00 +27°C° 0 mm 5 m/s 717 mmHg 25%
    08:00 +29°C° 0 mm 6 m/s 717 mmHg 25%
    09:00 +32°C° 0 mm 7 m/s 718 mmHg 24%
    10:00 +34°C° 0 mm 7 m/s 717 mmHg 21%
    11:00 +36°C° 0 mm 7 m/s 717 mmHg 17%
    12:00 +38°C° 0 mm 7 m/s 717 mmHg 14%
    13:00 +39°C° 0 mm 7 m/s 716 mmHg 13%
    14:00 +40°C° 0 mm 7 m/s 716 mmHg 11%
    15:00 +41°C° 0 mm 8 m/s 715 mmHg 10%
    16:00 +41°C° 0 mm 8 m/s 715 mmHg 10%
    17:00 +40°C° 0 mm 8 m/s 715 mmHg 10%
    18:00 +39°C° 0 mm 8 m/s 715 mmHg 10%
    19:00 +36°C° 0 mm 7 m/s 715 mmHg 12%
    20:00 +34°C° 0 mm 6 m/s 716 mmHg 14%
    21:00 +32°C° 0 mm 6 m/s 716 mmHg 16%
    22:00 +30°C° 0 mm 5 m/s 716 mmHg 18%
    23:00 +29°C° 0 mm 5 m/s 716 mmHg 20%

    Amanhã, 25 Fevereiro, Terça-feira

    Tempo Temperatura Precipitação Vento Pressão Humidade
    00:00 +28°C° 0 mm 5 m/s 716 mmHg 21%
    01:00 +28°C° 0 mm 5 m/s 715 mmHg 24%
    02:00 +27°C° 0 mm 4 m/s 715 mmHg 26%
    03:00 +26°C° 0 mm 4 m/s 715 mmHg 29%
    04:00 +26°C° 0 mm 4 m/s 715 mmHg 32%
    05:00 +25°C° 0 mm 4 m/s 716 mmHg 35%
    06:00 +25°C° 0 mm 4 m/s 716 mmHg 38%
    07:00 +27°C° 0 mm 5 m/s 716 mmHg 35%
    08:00 +29°C° 0 mm 7 m/s 717 mmHg 33%
    09:00 +33°C° 0 mm 8 m/s 717 mmHg 30%
    10:00 +35°C° 0 mm 8 m/s 717 mmHg 27%
    11:00 +38°C° 0 mm 8 m/s 716 mmHg 23%
    12:00 +40°C° 0 mm 8 m/s 716 mmHg 19%
    13:00 +40°C° 0 mm 8 m/s 715 mmHg 18%
    14:00 +41°C° 0 mm 8 m/s 714 mmHg 16%
    15:00 +43°C° 0 mm 8 m/s 714 mmHg 15%
    16:00 +43°C° 0 mm 8 m/s 714 mmHg 15%
    17:00 +41°C° 0 mm 8 m/s 714 mmHg 16%
    18:00 +41°C° 0 mm 8 m/s 714 mmHg 16%
    19:00 +39°C° 0 mm 8 m/s 714 mmHg 18%
    20:00 +36°C° 0 mm 7 m/s 715 mmHg 20%
    21:00 +34°C° 0 mm 7 m/s 715 mmHg 23%
    22:00 +34°C° 0 mm 6 m/s 715 mmHg 24%
    23:00 +33°C° 0 mm 6 m/s 715 mmHg 25%

    Depois de amanhã, 26 Fevereiro, Quarta-feira

    Tempo Temperatura Precipitação Vento Pressão Humidade
    00:00 +32°C° 0 mm 6 m/s 716 mmHg 27%
    01:00 +30°C° 0 mm 5 m/s 715 mmHg 29%
    02:00 +29°C° 0 mm 5 m/s 715 mmHg 31%
    03:00 +29°C° 0 mm 5 m/s 715 mmHg 32%
    04:00 +28°C° 0 mm 5 m/s 715 mmHg 34%
    05:00 +27°C° 0 mm 4 m/s 715 mmHg 35%
    06:00 +27°C° 0 mm 4 m/s 715 mmHg 37%
    07:00 +29°C° 0 mm 6 m/s 716 mmHg 33%
    08:00 +33°C° 0 mm 8 m/s 717 mmHg 28%
    09:00 +36°C° 0 mm 10 m/s 717 mmHg 24%
    10:00 +38°C° 0 mm 10 m/s 717 mmHg 22%
    11:00 +40°C° 0 mm 10 m/s 717 mmHg 19%
    12:00 +42°C° 0 mm 10 m/s 716 mmHg 17%
    13:00 +43°C° 0 mm 10 m/s 716 mmHg 16%
    14:00 +44°C° 0 mm 9 m/s 715 mmHg 15%
    15:00 +44°C° 0 mm 9 m/s 714 mmHg 14%
    16:00 +43°C° 0 mm 9 m/s 714 mmHg 14%
    17:00 +43°C° 0 mm 9 m/s 714 mmHg 15%
    18:00 +42°C° 0 mm 9 m/s 715 mmHg 15%
    19:00 +39°C° 0 mm 8 m/s 715 mmHg 17%
    20:00 +38°C° 0 mm 7 m/s 716 mmHg 19%
    21:00 +35°C° 0 mm 7 m/s 716 mmHg 20%
    22:00 +34°C° 0 mm 7 m/s 716 mmHg 22%
    23:00 +33°C° 0 mm 7 m/s 716 mmHg 23%

    27 Fevereiro, Quinta-feira

    Tempo Temperatura Precipitação Vento Pressão Humidade
    00:00 +32°C° 0 mm 7 m/s 716 mmHg 24%
    01:00 +30°C° 0 mm 7 m/s 716 mmHg 26%
    02:00 +29°C° 0 mm 7 m/s 716 mmHg 28%
    03:00 +29°C° 0 mm 7 m/s 716 mmHg 30%
    04:00 +28°C° 0 mm 7 m/s 716 mmHg 32%
    05:00 +27°C° 0 mm 7 m/s 716 mmHg 34%
    06:00 +27°C° 0 mm 7 m/s 717 mmHg 37%
    07:00 +28°C° 0 mm 7 m/s 717 mmHg 35%
    08:00 +31°C° 0 mm 8 m/s 718 mmHg 33%
    09:00 +32°C° 0 mm 8 m/s 718 mmHg 31%
    10:00 +34°C° 0 mm 8 m/s 718 mmHg 27%
    11:00 +36°C° 0 mm 7 m/s 718 mmHg 23%
    12:00 +39°C° 0 mm 6 m/s 717 mmHg 20%
    13:00 +40°C° 0 mm 6 m/s 717 mmHg 18%
    14:00 +40°C° 0 mm 6 m/s 716 mmHg 17%
    15:00 +41°C° 0 mm 6 m/s 715 mmHg 16%
    16:00 +41°C° 0 mm 6 m/s 715 mmHg 17%
    17:00 +40°C° 0 mm 7 m/s 715 mmHg 18%
    18:00 +40°C° 0 mm 7 m/s 715 mmHg 18%
    19:00 +38°C° 0 mm 7 m/s 716 mmHg 21%
    20:00 +35°C° 0 mm 7 m/s 716 mmHg 23%
    21:00 +33°C° 0 mm 7 m/s 717 mmHg 25%
    22:00 +32°C° 0 mm 7 m/s 717 mmHg 25%
    23:00 +30°C° 0 mm 7 m/s 717 mmHg 25%

    28 Fevereiro, Sexta-feira

    Tempo Temperatura Precipitação Vento Pressão Humidade
    00:00 +28°C° 0 mm 7 m/s 717 mmHg 24%
    01:00 +28°C° 0 mm 6 m/s 717 mmHg 24%
    02:00 +27°C° 0 mm 6 m/s 716 mmHg 24%
    03:00 +26°C° 0 mm 6 m/s 716 mmHg 24%
    04:00 +24°C° 0 mm 6 m/s 717 mmHg 26%
    05:00 +23°C° 0 mm 6 m/s 717 mmHg 27%
    06:00 +22°C° 0 mm 6 m/s 717 mmHg 28%
    07:00 +24°C° 0 mm 6 m/s 717 mmHg 25%
    08:00 +27°C° 0 mm 7 m/s 718 mmHg 22%
    09:00 +29°C° 0 mm 8 m/s 718 mmHg 20%
    10:00 +32°C° 0 mm 7 m/s 718 mmHg 18%
    11:00 +33°C° 0 mm 7 m/s 717 mmHg 16%
    12:00 +35°C° 0 mm 6 m/s 717 mmHg 15%
    13:00 +36°C° 0 mm 5 m/s 716 mmHg 13%
    14:00 +37°C° 0 mm 5 m/s 716 mmHg 11%
    15:00 +39°C° 0 mm 5 m/s 715 mmHg 10%
    16:00 +39°C° 0 mm 5 m/s 715 mmHg 10%
    17:00 +37°C° 0 mm 5 m/s 715 mmHg 10%
    18:00 +37°C° 0 mm 5 m/s 715 mmHg 10%
    19:00 +35°C° 0 mm 5 m/s 715 mmHg 11%
    20:00 +32°C° 0 mm 5 m/s 716 mmHg 12%
    21:00 +29°C° 0 mm 5 m/s 716 mmHg 13%
    22:00 +28°C° 0 mm 5 m/s 716 mmHg 14%
    23:00 +27°C° 0 mm 6 m/s 716 mmHg 15%

    29 Fevereiro, Sábado

    Tempo Temperatura Precipitação Vento Pressão Humidade
    00:00 +26°C° 0 mm 6 m/s 716 mmHg 16%
    01:00 +25°C° 0 mm 5 m/s 715 mmHg 18%
    02:00 +25°C° 0 mm 5 m/s 715 mmHg 19%
    03:00 +23°C° 0 mm 5 m/s 715 mmHg 20%
    04:00 +22°C° 0 mm 5 m/s 716 mmHg 21%
    05:00 +22°C° 0 mm 5 m/s 716 mmHg 21%
    06:00 +21°C° 0 mm 5 m/s 716 mmHg 22%
    07:00 +24°C° 0 mm 6 m/s 717 mmHg 20%
    08:00 +27°C° 0 mm 7 m/s 717 mmHg 18%
    09:00 +29°C° 0 mm 8 m/s 717 mmHg 15%
    10:00 +32°C° 0 mm 7 m/s 717 mmHg 14%
    11:00 +34°C° 0 mm 7 m/s 717 mmHg 12%
    12:00 +36°C° 0 mm 6 m/s 717 mmHg 10%
    13:00 +37°C° 0 mm 5 m/s 716 mmHg 10%
    14:00 +39°C° 0 mm 5 m/s 715 mmHg 9%
    15:00 +40°C° 0 mm 4 m/s 715 mmHg 8%
    16:00 +38°C° 0 mm 4 m/s 715 mmHg 8%
    17:00 +38°C° 0 mm 4 m/s 714 mmHg 8%
    18:00 +38°C° 0 mm 4 m/s 714 mmHg 8%
    19:00 +35°C° 0 mm 4 m/s 715 mmHg 10%
    20:00 +33°C° 0 mm 4 m/s 715 mmHg 11%
    21:00 +30°C° 0 mm 4 m/s 716 mmHg 12%
    22:00 +29°C° 0 mm 4 m/s 716 mmHg 13%
    23:00 +28°C° 0 mm 4 m/s 715 mmHg 14%
    Mostrar mais